Regional Weather Roundup
Issued by NWS Midland/Odessa, TX

Skip options and go directly to product.
Home | Oldest Version | Previous Version | Current Version | All | Text Only | Save Text | Print | Product List | Glossary On

Skip product version selection by date and time.   
326
ASUS44 KMAF 291610
RWRMAF
MIDLAND AREA WEATHER ROUNDUP
NATIONAL WEATHER SERVICE MIDLAND TX
1100 AM CDT FRI APR 29 2016

...IN SOUTHWEST TEXAS AND SOUTHEAST NEW MEXICO...

CITY           SKY/WX    TMP DP  RH WIND       PRES   REMARKS
ALPINE         SUNNY     71  30  22 SW7       29.93F
ANDREWS        FAIR      75  32  21 NW22G29   29.80R
ARTESIA        SUNNY     70  14  11 W29G35    29.81F
BIG SPRING     SUNNY     78  34  20 W24G30    29.76S
CARLSBAD       SUNNY     71  23  16 W21G28    29.81S
DRYDEN           N/A     84  50  30 N16G25    29.72S
FORT STOCKTON  SUNNY     76  32  20 NW23G29   29.80F
GUAD PASS      SUNNY     61  20  20 W43G53    29.87S
HOBBS          SUNNY     72  32  23 W24G32    29.80S
MARFA          SUNNY     67  30  25 W16       29.93R
MIDLAND AIRPK  SUNNY     79  32  18 W24       29.77S
MIDLAND INTL   SUNNY     79  33  19 W22G30    29.76S
ODESSA         SUNNY     79  33  19 NW22G30   29.78S
PECOS          SUNNY     76  29  18 W21G28    29.81R
PRESIDIO       FAIR      77  31  18 W9G18     29.82R
SEMINOLE       SUNNY     74  36  25 W15G21    29.80R
SNYDER           N/A     78  46  32 W22G29    29.70S
WINK           SUNNY     76  33  21 W18       29.78S
$$
...OTHER STATIONS IN TEXAS...

CITY           SKY/WX    TMP DP  RH WIND       PRES   REMARKS
ABILENE        SUNNY     78  67  68 S18G28    29.69S
AMARILLO       CLOUDY    50  47  89 NE21      29.77S
AUSTIN         CLOUDY    81  74  79 S22G28    29.69F HAZE
BROWNSVILLE    CLOUDY    81  76  84 SE22      29.70S
CORPUS CHRISTI CLOUDY    81  74  79 SE25      29.70R
DALLAS FTW     PTSUNNY   79  72  79 SE5       29.70S
DEL RIO        CLOUDY    76  73  91 SE9       29.68R FOG
EL PASO        SUNNY     62  20  19 W14G30    29.89S
HOUSTON INT    MOSUNNY   81  70  69 S21G28    29.76S
LUBBOCK        MOSUNNY   69  52  54 NW21G29   29.74R
SAN ANGELO     CLOUDY    75  68  78 SW14      29.73R
SAN ANTONIO    CLOUDY    81  73  76 S16       29.72S
WACO           CLOUDY    79  72  79 S9        29.70S HAZE
WICHITA FALLS  NOT AVBL
$$
...OTHER LOCATIONS IN NEW MEXICO...

CITY           SKY/WX    TMP DP  RH WIND       PRES   REMARKS
ALAMAGORDO     SUNNY     61  19  20 NW9       29.88S
ALBUQUERQUE    MOSUNNY   50  36  58 W13       29.87S
CANNON AFB     MOSUNNY   54  46  76 N13       29.80S
CLOVIS         CLOUDY    52  46  82 N17       29.81F
HOLLOMAN AFB   SUNNY     61  19  19 W9G17     29.87R
ROSWELL        SUNNY     70  17  13 SW16G23   29.78F
RUIDOSO          N/A     50  14  23 W16G26    29.90S
SANTA FE       PTSUNNY   46  35  65 SW7       29.86S
TRUTH OR CONSE SUNNY     58  20  22 NW16G24   29.88S
TUCUMCARI      CLOUDY    50  44  80 NE12      29.81F
$$

USA.gov is the U.S. government's official web portal to all federal, state and local government web resources and services.